Terminal Aerodrome Forecast
Issued by NWS

Home | Current Version | Previous Version | Text Only | Print | Product List | Glossary On
Versions: 1 2 3 4 5 6 7 8 9 10 11 12 13
000
FTUS45 KSLC 060539
TAFOGD
TAF
KOGD 060539Z 0606/0706 14014G22KT P6SM BKN130 OVC200
     FM060700 17006KT P6SM BKN200
     FM061700 10010G18KT P6SM SCT120 BKN200
     FM062100 05010G20KT P6SM BKN100 BKN150
     FM070300 16008KT P6SM BKN100 BKN150=

USA.gov is the U.S. government's official web portal to all federal, state and local government web resources and services.